RH
60 58 55 50 47 43 40 35 32 28 24 21 18 15 13 12 10 9 8 8 7 7 6 6 6 5 5 4 4 4 4 4 4 4 4 4 4 4 5 5 5 5 5 5 5 5 5 5 5 5 5 5 6 6 6 6 6 6 6 9 11 14 17 11 8 6 5 4 4 6 10 18 30 42 57 68 74 75 74 72 71 69 68 65 62 60
59 57 54 50 47 43 39 35 31 27 24 20 18 15 13 12 10 10 8 8 8 7 7 6 6 6 5 5 4 4 4 4 4 4 4 4 4 4 4 4 5 5 5 5 5 5 5 5 5 5 5 5 5 6 6 6 6 6 6 11 15 19 24 18 12 8 5 4 4 5 8 15 26 40 53 61 68 71 74 72 70 68 66 64 61 60
58 56 54 50 46 43 39 35 31 27 24 20 18 16 13 12 11 10 9 8 8 8 7 7 6 6 5 5 4 4 4 4 4 4 4 4 4 4 4 4 4 5 5 5 5 5 5 5 5 5 5 5 5 6 6 6 6 6 7 12 18 24 28 20 14 10 6 5 4 5 6 12 23 36 50 56 63 69 73 72 69 66 65 63 61 61
56 55 54 50 46 42 39 34 31 27 24 21 18 16 14 12 11 10 10 9 8 8 8 7 6 6 5 5 4 4 4 4 4 4 3 4 4 4 4 4 4 4 5 5 5 5 5 5 5 5 5 5 6 6 6 6 6 6 8 12 20 27 32 23 16 11 7 5 4 5 6 13 23 34 45 53 61 68 74 72 69 66 65 64 62 63
54 53 52 50 46 42 39 35 31 27 24 21 18 16 14 13 12 11 10 10 10 9 8 8 7 6 6 5 5 4 4 4 4 4 3 3 3 4 4 4 4 4 4 4 5 5 5 5 5 5 5 5 6 6 6 6 6 6 7 12 19 28 34 26 20 14 9 6 4 4 6 14 24 34 42 50 60 70 74 72 69 66 66 66 65 66
52 51 50 49 46 43 39 35 31 27 24 21 18 16 14 13 12 12 11 10 10 10 9 8 8 7 6 6 5 4 4 4 4 4 3 3 3 3 3 4 4 4 4 4 4 5 5 5 5 5 5 5 6 6 6 6 6 6 6 10 19 28 34 25 20 16 12 7 5 4 6 13 24 34 43 50 62 72 74 72 69 67 66 68 68 69
50 49 48 47 46 43 40 36 32 28 24 21 19 16 15 14 13 12 12 11 10 10 10 8 8 7 6 6 5 5 4 4 4 4 3 3 3 3 3 3 4 4 4 4 4 4 4 5 5 5 5 5 6 6 6 6 6 6 6 8 18 28 32 24 19 16 12 8 6 6 6 10 20 32 45 55 65 73 74 73 70 68 68 68 70 70
49 47 46 46 44 42 40 36 32 28 25 22 19 17 16 14 13 13 12 12 11 11 10 10 8 8 7 6 6 5 5 4 4 4 3 3 3 3 3 3 3 4 4 4 4 4 4 4 5 5 5 5 5 6 6 6 7 7 6 8 12 20 26 20 18 16 13 10 8 7 6 9 16 28 44 55 65 72 75 74 71 69 68 69 70 72
48 46 45 44 44 42 40 36 33 29 26 23 20 18 16 15 14 13 13 12 12 11 11 10 9 8 7 6 6 5 5 4 4 4 4 3 3 3 3 3 3 3 4 4 4 4 4 4 4 5 5 5 5 6 6 6 7 7 7 8 10 12 15 14 15 16 13 11 10 10 8 8 13 23 38 52 64 72 77 75 73 70 69 70 71 73
48 46 44 43 42 42 40 37 34 30 26 24 21 19 17 16 15 14 14 13 12 12 11 10 10 8 8 7 6 6 5 5 4 4 4 3 3 3 3 3 3 3 3 4 4 4 4 4 4 4 5 5 5 6 6 7 7 8 7 8 10 11 10 10 12 14 14 12 11 10 8 8 11 18 31 46 61 74 79 77 75 72 70 71 72 74
48 45 43 42 42 40 39 37 34 31 27 24 22 20 18 16 15 15 14 14 13 12 12 11 10 9 8 7 6 6 5 5 4 4 4 4 3 3 3 3 3 3 3 3 4 4 4 4 4 4 4 5 5 6 6 7 8 8 8 10 11 12 11 8 10 12 13 12 11 10 10 8 9 14 24 40 58 73 80 80 78 74 72 72 73 74
47 45 43 42 41 40 39 37 34 31 28 26 23 21 19 17 16 15 14 14 14 13 12 11 10 9 8 7 6 6 5 5 4 4 4 4 3 3 3 3 3 3 3 3 3 4 4 4 4 4 4 5 5 6 6 8 8 9 8 10 11 11 10 10 11 12 13 11 10 9 8 7 8 12 19 35 56 73 81 81 79 76 74 73 74 76
45 44 43 42 40 40 38 37 34 32 29 26 24 22 20 18 16 16 15 14 14 13 12 11 10 10 8 7 6 6 5 5 4 4 4 4 3 3 3 3 3 3 3 3 3 3 4 4 4 4 4 4 5 6 6 8 8 10 10 10 10 10 10 12 13 14 13 11 10 10 9 8 8 10 16 31 51 70 81 82 80 78 76 74 74 76
44 43 42 41 40 39 38 36 34 32 30 28 26 24 22 19 18 16 16 15 14 13 12 12 10 10 8 7 6 6 5 5 4 4 4 4 4 3 3 3 3 3 3 3 3 3 3 4 4 4 4 4 5 6 6 8 9 10 10 10 10 10 10 12 12 12 13 12 10 10 11 10 8 10 14 27 46 66 80 82 81 79 76 76 74 75
42 42 42 41 40 39 38 36 35 33 31 28 26 24 22 20 18 17 16 15 14 13 12 12 11 10 8 8 6 6 5 5 5 4 4 4 4 3 3 3 3 3 3 3 3 3 3 3 4 4 4 4 5 5 6 8 9 10 10 10 10 11 12 12 12 11 12 11 10 10 10 9 9 10 12 23 42 63 79 82 82 80 77 76 75 74
42 41 40 40 39 38 37 36 35 33 32 29 27 25 23 21 19 18 16 16 15 14 12 12 11 10 9 8 7 6 6 5 5 4 4 4 4 3 3 3 3 2 2 2 3 3 3 3 4 4 4 4 5 5 6 8 9 10 10 10 11 11 11 12 11 10 10 10 10 10 10 10 10 10 12 21 38 58 77 82 82 80 78 76 76 74
43 41 40 39 38 37 36 35 34 34 32 30 28 26 24 22 20 18 17 16 15 14 13 12 11 10 10 8 7 6 6 5 5 5 4 4 4 4 3 3 3 2 2 2 2 3 3 3 3 4 4 4 4 5 6 7 8 10 11 11 11 11 10 10 9 8 9 10 10 11 11 10 10 11 12 18 33 52 74 81 82 80 78 77 76 75
45 42 40 39 38 36 35 34 34 33 32 30 28 26 24 23 21 20 18 17 16 14 13 12 11 10 10 8 7 6 6 6 5 5 4 4 4 4 3 3 3 2 2 2 2 2 3 3 3 4 4 4 4 5 6 7 8 10 11 11 12 11 10 9 8 8 8 10 11 13 13 12 12 12 13 18 29 47 70 80 82 81 79 78 77 76
48 44 41 39 37 35 34 34 33 32 32 30 29 27 26 24 22 20 19 18 16 15 14 13 12 11 10 9 8 7 6 6 6 5 5 4 4 4 3 3 3 2 2 2 2 2 2 3 3 3 4 4 4 5 6 7 8 10 11 12 12 12 11 10 10 9 10 10 12 14 15 14 14 14 14 17 26 42 66 79 83 81 79 78 78 78
48 46 42 39 36 34 33 32 32 31 31 30 29 28 26 25 23 22 20 18 17 16 14 13 12 12 10 10 8 7 6 6 6 5 5 4 4 4 3 3 3 2 2 2 2 2 2 3 3 3 4 4 4 4 5 7 8 10 11 12 12 12 12 11 11 11 10 12 13 14 16 16 16 16 16 17 24 38 65 78 82 82 80 79 78 78
44 44 42 39 36 34 32 31 30 29 29 28 28 27 26 25 24 22 21 19 18 16 15 14 13 12 11 10 8 8 6 6 6 5 5 4 4 4 3 3 3 2 2 2 2 2 2 2 3 3 3 4 4 4 5 6 8 10 11 12 13 13 12 13 13 12 12 12 12 14 16 18 18 17 17 17 23 38 65 80 84 82 80 78 78 78
39 40 40 38 36 34 31 29 28 27 27 26 26 26 26 24 24 22 21 20 18 17 16 15 14 12 12 10 9 8 6 6 6 5 5 4 4 4 3 3 3 2 2 2 2 2 2 2 3 3 3 4 4 4 5 6 8 10 11 12 13 14 14 14 14 13 13 12 13 15 19 21 20 19 18 17 23 39 71 81 84 82 79 78 78 78
34 35 36 36 34 33 31 28 26 25 24 24 24 24 24 24 23 22 21 20 19 18 16 15 14 13 12 11 9 8 7 6 6 5 5 4 4 4 3 3 3 2 2 2 2 2 2 2 2 3 3 3 4 4 5 6 8 9 11 13 14 15 15 15 14 14 14 14 15 18 26 27 24 21 18 16 25 45 76 83 84 82 80 78 77 78
28 30 32 32 32 32 30 28 26 24 23 22 22 22 22 22 21 21 20 20 18 18 16 15 14 13 12 10 9 8 7 6 6 5 5 4 4 4 3 3 3 2 2 2 2 2 2 2 2 3 3 3 4 4 5 6 7 9 11 13 15 16 16 16 16 16 16 15 18 26 39 36 29 22 18 16 30 54 82 84 84 83 80 78 77 77
24 25 27 28 30 30 30 28 26 24 23 21 20 20 20 20 19 19 18 18 17 16 16 15 14 12 11 10 9 8 6 6 6 5 5 4 4 4 3 3 3 2 2 2 2 2 2 2 2 3 3 3 4 4 4 6 7 9 11 14 15 16 16 17 17 17 17 16 24 37 55 46 34 22 16 18 38 65 86 85 84 84 81 79 77 77
23 23 24 26 27 28 29 28 27 26 24 22 20 19 18 18 18 17 17 16 16 15 14 14 13 12 10 10 8 7 6 6 5 5 4 4 4 4 3 3 2 2 2 2 2 2 2 2 2 3 3 3 4 4 4 5 7 8 11 14 16 17 17 18 19 19 19 18 29 46 66 54 37 22 15 23 48 74 86 85 84 84 82 80 78 77
21 22 23 24 24 26 27 27 27 26 24 23 21 20 18 18 16 16 16 15 14 14 13 12 12 11 10 8 8 7 6 6 5 5 4 4 4 4 3 3 2 2 2 2 2 2 2 2 2 2 3 3 3 4 4 5 6 8 11 14 16 18 19 20 22 22 22 22 36 55 71 58 40 23 15 29 56 81 85 84 84 83 82 81 79 77
18 20 21 22 23 24 24 25 25 24 24 23 22 20 19 18 16 16 15 14 13 12 12 11 10 10 9 8 7 7 6 6 5 5 4 4 4 4 3 3 2 2 2 2 2 2 2 2 2 2 3 3 3 4 4 5 6 8 12 16 18 20 22 24 24 24 24 26 43 64 74 61 42 25 17 36 63 83 85 84 84 83 82 81 79 77
15 16 18 20 20 22 22 22 22 22 22 22 21 20 19 18 16 16 14 13 12 11 11 10 10 9 8 8 7 6 6 6 5 4 4 4 4 4 3 3 2 2 2 2 2 2 2 2 2 2 3 3 3 4 4 5 8 11 12 16 20 24 26 30 29 26 26 30 49 70 78 66 46 27 19 42 68 85 84 84 84 83 82 80 78 76
13 14 15 16 18 18 19 20 20 20 20 19 19 19 18 18 16 15 13 12 11 10 10 10 9 8 8 7 7 6 6 5 5 4 4 4 4 4 3 3 2 2 2 2 2 2 2 2 2 2 2 3 3 4 4 5 11 17 16 17 20 24 29 34 32 27 26 33 54 75 82 72 53 34 23 46 69 85 85 84 84 83 82 80 79 75
12 12 13 14 15 16 16 16 17 17 17 17 17 17 16 16 15 14 13 12 11 10 10 9 8 8 8 7 6 6 6 5 5 4 4 4 4 4 3 3 2 2 2 2 2 2 2 2 2 2 2 3 3 4 4 6 12 18 21 20 22 26 30 34 33 30 29 37 55 74 83 76 61 42 28 50 71 85 86 84 84 83 82 80 78 71
11 12 12 12 13 14 14 14 14 15 15 15 15 15 15 15 14 13 12 11 10 10 9 8 8 8 8 7 6 6 5 4 4 4 4 4 4 4 4 3 3 2 2 2 2 2 2 2 2 2 3 3 3 4 4 6 10 16 21 20 23 27 28 33 35 34 33 39 53 68 80 78 65 47 32 51 71 84 86 85 84 83 82 79 74 65
12 11 11 12 12 12 12 13 13 13 14 14 14 14 14 14 13 12 11 10 10 10 9 8 8 8 8 7 6 5 4 4 4 4 4 4 4 4 3 3 3 2 2 2 3 3 4 4 3 4 5 4 4 3 4 5 10 17 22 20 24 29 30 34 36 38 36 39 48 60 76 78 67 50 35 52 70 82 84 85 85 84 82 79 72 61
12 12 12 11 12 12 12 12 12 12 13 13 13 13 13 12 12 11 11 10 10 9 8 8 8 8 8 7 6 5 4 4 4 4 4 3 3 4 4 5 5 4 2 2 3 3 5 6 6 7 10 7 4 3 4 5 9 16 22 20 25 32 36 38 39 39 38 38 42 52 73 79 70 55 38 52 68 80 82 83 84 84 83 80 71 59
12 12 12 11 11 11 11 12 12 12 12 12 12 12 12 12 12 11 10 10 10 9 8 8 8 8 7 6 6 5 4 4 3 3 3 4 8 13 20 22 18 10 3 2 4 6 6 6 8 12 22 14 7 4 4 5 10 16 21 21 26 34 39 42 42 40 38 37 40 50 70 80 78 66 50 55 66 77 79 80 82 84 84 81 72 60
12 12 12 11 11 11 11 11 12 12 12 12 12 12 12 12 11 11 10 10 10 9 8 8 8 7 6 5 5 4 4 4 3 4 8 18 32 45 53 51 38 21 5 2 6 10 12 10 12 20 34 22 11 3 4 6 12 18 21 22 26 32 39 42 42 40 37 35 39 49 67 80 82 77 69 62 66 74 76 74 77 82 84 81 73 64
12 12 12 11 11 11 11 11 12 12 12 12 12 12 12 11 11 11 10 10 10 9 8 8 8 6 5 4 4 4 4 4 7 14 29 48 60 66 69 66 48 26 6 4 10 16 20 18 21 28 36 28 15 4 4 6 12 18 22 23 26 32 38 43 43 41 38 34 36 45 66 79 82 80 78 68 66 68 70 68 73 80 83 81 75 68
12 12 11 11 11 11 11 11 11 11 11 11 11 11 11 11 11 10 10 10 9 9 8 8 7 6 4 4 4 5 6 11 22 38 57 67 71 72 70 70 50 24 6 7 15 24 30 30 32 32 29 25 16 8 5 8 14 20 25 25 28 32 38 42 44 44 42 37 37 45 65 79 82 80 77 67 60 56 56 58 70 82 82 80 76 71
12 12 11 11 11 11 11 11 11 11 11 11 11 11 11 10 10 10 10 9 8 8 8 7 6 5 4 4 6 10 17 31 49 64 71 72 71 71 72 68 48 23 7 13 22 29 32 35 36 35 28 19 12 8 7 11 17 23 27 29 32 35 38 41 43 45 47 44 41 45 62 78 83 82 79 67 57 50 44 46 62 80 82 80 76 71
13 12 11 10 10 10 10 10 10 10 10 10 10 10 10 10 9 9 8 8 8 7 6 6 4 4 4 8 14 25 40 58 69 74 72 71 71 72 72 64 44 22 10 16 25 33 37 40 40 36 28 18 13 13 16 17 20 25 30 34 38 40 40 41 42 45 50 48 46 48 61 76 82 82 80 73 61 48 35 47 66 82 81 80 73 67
14 12 11 10 9 9 9 9 9 9 9 9 9 9 9 8 8 8 7 7 6 6 5 4 4 4 8 18 32 48 63 69 71 71 70 70 71 71 70 58 39 21 14 18 25 32 39 43 42 37 28 16 11 12 18 20 25 29 33 37 40 42 41 41 42 43 47 50 50 54 64 77 82 83 81 78 68 53 32 42 62 80 80 75 68 65
17 14 12 10 9 8 8 8 8 8 8 8 8 8 7 7 6 6 6 6 5 4 3 3 5 11 22 39 55 67 73 72 72 72 71 72 72 71 68 50 34 22 20 26 31 36 42 42 37 29 19 12 8 9 14 20 24 28 31 38 41 42 43 42 42 44 46 51 53 57 66 78 82 83 81 78 69 54 34 49 66 78 76 62 61 70
21 17 13 12 11 10 10 9 8 8 7 7 6 6 6 6 5 5 5 5 4 4 3 5 14 28 48 65 72 74 72 71 71 71 72 72 72 70 62 44 30 22 24 30 36 42 45 44 40 34 24 14 10 10 14 19 24 28 31 39 42 44 46 45 43 43 46 50 53 58 65 74 80 82 81 76 63 49 35 48 66 79 74 59 66 81
24 20 18 17 16 14 12 10 8 7 6 6 5 5 5 6 6 7 6 5 4 4 6 17 34 52 69 72 72 72 71 71 72 72 73 72 72 68 56 37 27 24 26 34 42 47 50 50 44 33 20 14 14 16 18 22 26 30 33 36 40 42 44 44 43 43 44 47 49 52 56 62 73 82 82 78 62 44 33 57 73 78 72 69 76 85
28 25 24 22 20 17 13 10 8 7 6 5 5 5 6 8 10 11 9 7 7 12 22 41 56 67 73 72 72 72 74 72 72 72 73 72 72 70 63 50 38 32 34 43 50 54 55 49 38 25 14 14 17 21 24 28 30 33 36 38 40 42 42 42 42 43 45 46 45 44 45 54 68 79 81 76 60 42 33 57 72 76 66 72 80 87
34 31 29 26 24 22 19 14 11 8 6 5 5 6 9 14 17 17 13 11 17 30 49 64 71 72 71 72 72 72 73 73 73 74 73 72 71 71 71 65 55 47 47 55 60 60 55 45 32 20 12 16 20 24 30 33 35 36 36 38 41 43 44 44 44 44 45 45 42 40 42 56 70 80 80 75 60 45 37 66 75 72 62 76 83 85
40 37 34 32 30 27 24 18 14 11 8 6 6 8 14 22 26 26 20 20 32 51 69 72 73 73 73 73 73 73 74 72 73 73 72 72 72 72 69 70 68 64 58 66 66 62 56 43 30 19 16 21 25 28 32 34 36 36 36 38 41 44 46 45 44 44 44 42 41 42 48 63 75 82 80 76 63 50 48 68 74 71 67 78 84 84
46 43 39 36 34 31 27 23 18 14 10 8 8 12 19 30 36 37 32 35 48 63 73 73 74 74 74 74 74 74 74 73 73 73 70 70 72 73 72 72 71 71 72 71 68 62 52 37 27 23 27 32 34 34 32 32 33 34 36 38 41 43 46 45 44 43 42 41 42 46 56 69 78 82 82 75 65 56 57 71 75 74 74 82 84 84
52 48 44 40 37 34 31 26 22 16 12 8 9 14 24 38 46 50 48 51 60 68 73 74 74 74 74 73 74 74 74 74 72 71 67 66 66 69 74 73 72 72 74 72 65 56 45 35 33 37 46 49 50 46 38 34 32 34 37 38 40 41 43 44 44 44 42 40 42 49 60 72 80 82 82 76 66 58 60 74 78 79 81 82 82 82
58 53 48 44 40 37 33 29 24 19 13 10 10 16 26 42 53 59 60 63 67 71 73 74 74 74 74 74 74 75 75 74 73 69 64 56 57 62 71 71 71 71 74 73 64 52 41 40 47 58 68 68 68 64 52 40 34 34 36 38 38 39 40 42 43 44 42 42 44 51 62 72 78 82 83 76 67 60 61 74 81 84 84 82 81 78
63 58 53 48 44 40 36 32 27 22 15 10 10 16 27 44 57 65 67 69 71 73 74 74 74 74 74 74 75 75 74 74 73 70 65 50 45 48 58 63 66 70 76 69 59 51 50 59 67 72 74 75 74 69 58 45 37 34 33 35 37 38 39 40 42 43 42 42 45 52 62 70 75 79 82 80 74 68 64 75 81 84 83 82 78 74
Wind_Speed
37 39 40 42 43 44 46 47 49 50 51 52 53 54 54 55 55 56 56 56 57 58 59 61 63 65 67 70 73 75 78 81 85 88 92 95 99 102 106 109 112 115 118 121 124 125 126 126 126 125 124 123 122 120 119 117 115 113 111 109 107 106 105 105 103 101 99 98 97 95 93 91 89 87 87 85 84 82 80 77 75 73 71 69 68 66
37 38 40 41 43 44 45 47 48 49 50 51 52 53 53 54 54 55 55 55 55 56 57 59 60 62 65 67 70 72 75 78 81 85 88 92 96 99 103 106 109 112 115 118 121 124 126 126 126 126 125 124 122 121 119 118 116 114 112 109 108 106 105 105 103 101 100 99 98 96 94 92 90 88 87 86 85 83 80 78 77 75 73 71 69 68
36 37 39 41 42 43 45 46 48 49 50 51 52 52 53 53 53 54 54 54 54 55 55 56 58 60 62 65 67 70 72 75 78 82 85 89 93 96 100 103 107 110 113 116 119 122 124 126 126 126 125 124 123 122 120 119 117 115 113 110 108 107 106 106 104 101 100 99 98 97 95 93 91 89 88 87 85 83 81 79 78 77 75 73 71 70
36 37 38 40 41 43 44 46 47 49 50 50 51 52 52 52 53 53 53 53 53 53 54 55 56 58 60 62 64 67 69 72 76 79 82 86 90 93 97 101 104 107 110 114 117 120 123 125 126 126 126 125 124 123 121 120 118 116 114 111 109 107 108 107 104 102 101 100 99 98 96 93 91 89 88 87 85 83 82 81 80 78 76 74 73 72
35 36 38 39 40 42 44 45 46 48 49 50 50 51 51 52 52 52 52 52 52 52 52 53 54 56 58 60 62 64 67 70 73 76 79 83 87 90 94 98 101 105 108 111 115 118 121 124 126 126 126 126 125 124 122 121 119 117 115 113 110 108 107 107 106 103 101 101 100 99 97 94 92 89 88 87 85 84 83 82 81 79 77 76 75 74
34 36 37 38 39 41 43 44 46 47 48 49 50 51 51 51 52 51 51 51 51 52 52 52 53 54 56 58 60 62 64 67 70 73 76 80 84 88 91 95 99 102 106 109 112 116 119 122 124 126 126 126 126 124 123 121 120 118 116 114 111 109 108 108 106 104 102 101 101 100 98 96 92 90 88 87 86 85 84 83 82 80 79 77 76 76
34 35 36 37 39 40 41 43 45 46 47 48 49 50 50 51 51 51 51 51 51 51 51 51 52 53 54 56 58 60 62 65 67 70 74 77 81 85 89 93 96 100 103 107 110 113 117 120 123 125 126 127 126 125 124 122 120 119 117 116 113 110 109 109 108 105 103 102 102 101 100 97 94 91 88 87 86 85 84 83 82 81 79 78 77 77
32 34 35 36 38 39 41 42 44 46 47 48 49 49 50 50 50 50 51 51 51 50 50 50 50 51 52 54 56 58 60 62 65 68 71 75 78 82 86 90 94 97 101 104 108 111 115 118 121 124 126 126 126 125 124 122 121 120 118 117 115 113 111 111 109 106 103 103 102 102 101 99 96 92 90 88 86 85 84 83 82 81 80 79 78 77
31 33 34 35 37 38 39 41 43 45 46 47 48 49 49 50 50 50 50 50 50 50 50 50 50 50 52 53 54 56 58 60 63 65 69 72 76 80 84 88 91 95 98 102 105 109 112 116 119 122 124 126 126 125 124 122 121 120 119 117 116 115 114 113 111 107 104 103 103 102 101 100 97 94 91 88 85 84 84 83 82 81 80 79 78 76
31 32 33 35 36 37 38 40 42 44 46 47 48 48 49 49 49 49 49 49 50 50 49 49 49 50 51 52 53 54 56 58 61 63 66 70 73 77 81 85 88 92 96 99 103 107 110 114 117 120 123 125 125 124 123 122 122 121 119 118 117 116 116 115 112 108 105 103 103 102 101 100 98 95 92 88 85 84 83 82 82 81 80 79 77 75
30 31 32 33 35 36 38 39 41 43 44 45 47 47 48 49 49 49 49 49 50 49 49 49 49 49 50 51 52 53 55 56 58 61 64 67 71 75 78 82 86 89 93 97 101 104 108 112 115 119 121 123 124 124 123 122 122 121 120 118 118 117 117 115 112 109 105 104 103 102 101 100 98 96 93 89 86 84 83 82 82 81 80 79 77 75
28 30 31 33 34 35 37 38 40 41 43 44 45 46 47 48 49 49 49 49 49 49 49 49 49 49 49 50 51 52 53 55 57 59 62 65 68 72 75 79 83 87 91 94 98 102 106 110 113 117 120 122 124 124 123 123 122 121 120 119 119 118 117 115 112 109 106 104 103 102 101 100 98 96 93 90 87 85 84 83 82 81 80 78 77 74
27 29 30 32 33 34 35 37 38 40 42 43 45 46 47 48 49 49 49 49 49 49 49 49 48 49 49 50 50 51 52 54 55 58 60 63 66 70 73 77 81 84 88 92 95 99 103 107 111 115 118 121 123 123 123 123 122 121 121 120 119 118 117 115 112 110 108 106 104 103 101 100 98 97 94 91 88 86 84 83 81 80 79 78 77 75
25 27 29 30 32 33 35 36 37 39 41 43 44 45 47 47 48 48 48 48 49 49 48 48 48 48 49 49 49 50 51 52 54 56 58 61 65 69 72 75 79 83 86 89 93 96 101 105 109 113 116 119 121 122 123 122 122 122 121 121 120 118 117 115 113 111 109 107 105 103 102 100 98 97 95 92 90 87 84 82 81 80 79 78 77 76
23 26 28 29 31 32 34 35 36 38 40 41 43 44 45 46 47 47 48 48 48 48 48 48 48 48 48 48 49 49 50 51 52 54 56 60 63 67 70 73 77 81 84 87 91 94 99 103 107 111 115 117 120 121 122 122 122 122 122 121 120 119 117 116 114 112 109 107 105 104 102 100 99 97 96 93 91 88 85 82 80 79 78 78 77 77
21 24 26 28 30 32 33 34 35 37 38 40 41 42 44 45 46 47 47 48 48 48 48 48 47 47 48 48 48 48 49 50 51 53 55 58 62 65 68 71 74 78 81 85 88 92 97 101 105 109 113 116 118 120 121 122 122 123 122 122 121 120 118 117 115 112 109 107 105 104 102 101 99 98 96 94 92 89 85 82 80 79 78 78 77 76
18 21 24 26 29 31 32 34 35 36 37 38 40 41 43 44 45 46 47 47 47 47 48 48 47 47 47 48 48 48 48 49 50 52 54 57 60 63 66 69 73 76 79 83 86 90 94 99 103 107 111 114 117 119 120 121 122 123 123 122 121 120 119 117 115 111 108 106 105 103 102 101 99 98 96 95 92 89 86 82 80 79 78 78 77 76
15 18 22 24 27 29 31 33 34 35 36 37 39 40 42 43 44 45 45 46 46 47 47 47 47 47 47 47 48 48 48 48 49 51 52 55 59 62 65 68 71 75 78 81 85 89 93 97 102 106 109 112 115 117 119 121 122 122 123 122 122 121 119 117 114 110 107 105 104 103 102 100 99 98 96 95 93 90 86 82 80 79 79 78 77 76
14 16 19 22 25 28 30 32 33 34 36 37 38 39 40 41 42 44 44 45 46 46 47 47 47 47 47 47 48 48 47 47 48 49 51 54 57 61 64 66 70 73 76 79 83 87 91 96 100 104 108 111 113 116 118 120 121 122 122 122 121 120 118 116 112 109 107 105 104 103 101 100 99 98 96 95 93 91 87 82 80 79 79 78 78 76
14 15 18 20 23 26 28 31 33 34 35 36 37 38 39 40 41 42 43 44 45 46 46 46 46 46 47 47 47 47 46 47 47 49 51 54 57 60 63 66 68 71 74 78 82 86 89 94 98 102 106 109 112 114 117 119 120 121 122 122 121 119 117 115 112 109 107 106 105 103 101 100 98 97 96 95 93 91 86 81 79 79 79 79 78 77
14 15 17 19 22 24 26 29 32 33 35 36 37 37 38 39 40 41 42 43 44 44 45 45 45 46 46 46 46 46 46 46 47 48 50 53 56 59 62 65 68 71 74 77 81 84 88 92 96 100 104 107 110 113 115 118 119 120 121 121 120 119 116 114 111 109 108 106 105 103 101 99 98 97 95 94 93 90 85 80 78 79 79 79 79 78
14 15 16 18 20 23 25 28 30 33 34 35 36 37 38 38 39 40 41 42 42 43 44 44 45 45 45 45 45 45 45 45 47 48 50 52 55 59 62 64 67 70 73 76 79 83 86 90 94 98 102 105 108 111 113 116 118 119 120 120 119 118 116 113 111 109 107 106 104 102 100 99 98 97 95 94 92 89 84 80 78 78 79 80 79 79
15 15 16 17 19 21 24 26 29 31 33 35 36 37 37 38 39 39 40 41 41 42 43 43 43 43 43 44 44 44 44 45 46 48 50 53 56 59 62 64 66 69 72 75 78 81 84 88 92 96 100 103 106 108 111 114 116 118 119 119 118 117 115 113 111 109 107 106 104 101 100 99 98 97 95 94 92 88 82 79 78 78 79 80 80 79
15 15 16 17 18 19 21 24 27 29 32 34 35 36 37 38 38 39 39 40 40 41 41 41 41 41 42 42 43 43 43 44 46 47 50 53 57 60 62 64 66 69 72 75 77 80 83 86 90 94 98 101 103 106 109 112 114 116 117 117 117 116 114 112 110 108 106 105 102 100 98 98 98 97 95 94 91 86 82 79 78 78 79 80 80 79
14 15 16 17 18 19 20 22 24 27 29 32 34 35 37 38 38 38 39 39 39 39 39 39 40 40 41 42 42 42 43 44 45 48 51 54 57 60 62 64 66 69 72 74 76 79 81 85 89 92 96 99 102 104 107 110 112 114 115 116 116 115 114 111 109 107 106 104 101 98 96 97 98 97 95 93 90 85 82 79 78 77 78 79 79 79
13 14 15 17 18 19 20 21 23 25 27 29 32 34 36 37 38 38 38 39 39 39 39 39 39 40 40 40 41 41 42 44 46 48 52 55 58 60 62 64 66 69 71 73 75 77 80 83 87 91 94 97 100 103 105 108 110 112 114 115 115 114 112 110 108 106 104 103 100 97 94 97 98 97 95 93 89 85 82 79 77 76 76 77 78 78
11 12 14 15 17 18 20 21 22 24 26 28 30 32 34 35 37 37 38 39 39 38 38 38 39 39 39 39 40 41 42 44 46 49 52 55 58 61 63 64 66 68 70 72 74 76 79 82 86 89 92 95 98 101 103 105 108 110 112 113 113 112 111 109 107 105 103 102 99 95 92 96 98 97 95 93 89 85 82 79 77 76 75 75 76 77
8 10 12 13 15 17 19 21 22 24 25 27 29 30 32 34 35 37 38 38 38 38 38 38 38 38 38 39 40 41 42 44 47 50 53 56 59 61 63 64 65 67 68 70 73 75 78 81 85 88 91 94 96 99 101 103 106 108 111 112 111 109 110 110 108 106 103 101 98 94 92 95 97 97 95 93 90 86 82 80 78 75 74 73 74 75
6 8 9 11 13 15 17 20 21 23 25 27 28 30 32 33 35 36 37 37 37 37 37 37 37 37 38 38 39 40 42 45 48 51 53 56 59 61 62 63 64 65 67 69 71 74 77 80 84 87 90 92 95 97 99 101 103 106 109 110 109 108 109 112 111 107 103 101 97 92 89 93 96 97 96 94 91 86 82 80 79 76 74 72 73 74
5 6 7 9 11 13 16 18 20 22 24 26 28 30 31 33 34 35 36 36 36 37 37 37 37 37 38 38 39 41 43 45 48 51 54 56 58 60 61 62 63 64 66 67 69 72 75 79 83 86 89 91 93 95 97 99 101 104 106 108 108 108 108 112 111 107 104 101 97 91 87 90 95 97 97 95 91 87 82 80 79 77 74 72 72 74
4 4 6 7 9 11 14 16 18 20 22 24 27 29 31 32 33 34 35 36 36 37 37 37 37 38 38 39 40 42 44 46 49 51 54 56 57 59 60 61 62 64 65 67 69 71 75 79 82 85 87 89 91 94 96 98 101 104 106 107 106 106 106 108 108 106 103 102 98 93 87 88 93 97 97 96 92 86 81 80 78 75 73 72 73 75
4 3 4 6 8 10 12 14 16 18 21 23 25 28 30 31 33 34 35 35 36 37 37 37 38 38 39 40 41 43 44 46 49 51 53 55 56 57 59 60 61 63 65 67 70 73 75 78 81 84 87 89 90 92 95 97 101 104 106 106 104 104 105 106 106 104 102 101 100 95 89 88 92 97 98 96 92 86 80 79 77 73 70 71 73 76
3 3 3 5 7 8 11 13 15 17 19 22 24 26 29 31 32 33 34 35 36 37 37 38 38 39 39 40 41 43 45 47 49 51 52 53 54 56 57 58 60 61 64 67 70 72 75 77 80 83 88 90 91 92 94 95 99 103 105 105 104 103 104 104 104 102 101 101 100 97 91 89 92 96 98 96 91 85 80 79 76 71 68 70 73 76
4 2 2 3 5 7 9 11 13 16 18 21 23 25 28 30 31 33 34 35 36 37 37 38 38 39 40 41 42 43 45 46 48 50 51 52 53 53 54 55 57 60 63 66 68 70 72 75 78 82 86 88 90 92 94 95 98 102 104 104 103 103 103 103 102 102 102 101 100 98 92 88 90 94 96 96 91 85 80 80 76 70 66 68 72 75
4 3 1 2 4 6 8 10 12 15 17 20 22 24 27 29 30 32 33 34 35 36 37 38 39 40 41 42 43 44 45 46 48 49 50 50 50 50 49 50 53 58 62 65 69 71 72 74 77 80 82 82 86 90 93 95 97 100 103 103 103 103 103 102 101 102 102 101 100 98 92 87 86 89 93 95 92 87 83 81 77 70 66 68 71 74
5 3 2 1 2 5 7 9 11 14 16 19 21 23 25 27 29 31 32 33 35 36 37 38 39 40 41 42 43 44 45 46 47 49 49 48 47 46 45 46 51 57 62 65 68 70 72 74 76 78 79 80 83 88 92 95 97 98 100 102 103 103 103 102 101 101 102 101 101 98 93 86 82 83 88 93 93 90 86 84 78 70 66 67 71 74
6 4 3 1 2 4 6 8 10 13 15 17 20 22 24 26 28 30 31 33 34 35 37 38 39 40 41 42 43 44 45 47 48 48 48 46 45 44 44 46 51 57 62 64 66 67 68 71 75 77 78 80 84 88 92 94 95 96 98 101 102 103 103 103 102 101 101 102 101 99 93 86 80 79 85 91 93 92 89 87 79 71 66 68 70 73
7 5 4 2 2 4 5 7 10 12 14 17 19 21 23 25 27 29 30 32 34 35 37 38 39 40 41 42 43 45 47 48 48 48 47 45 43 43 43 46 52 58 62 64 65 65 66 67 69 72 77 81 85 89 91 92 93 95 97 100 101 102 102 103 102 100 100 101 101 99 94 87 80 78 83 89 92 93 92 88 80 72 66 67 70 72
8 7 5 4 3 4 5 7 9 11 14 16 18 20 22 24 27 29 30 32 34 36 37 39 40 41 42 44 46 48 50 50 50 48 45 43 42 42 43 47 52 57 61 63 65 67 67 68 68 70 75 80 84 87 90 92 93 95 98 99 99 100 102 103 102 101 98 98 99 98 94 88 82 79 82 86 90 92 92 88 81 72 66 67 69 70
9 8 6 5 4 5 6 7 9 11 13 16 18 20 22 25 27 29 31 33 35 36 38 40 41 43 45 48 50 52 52 51 48 45 42 41 41 42 44 48 52 56 59 62 64 66 67 68 68 69 72 78 82 85 89 91 93 95 96 97 97 98 101 102 102 101 98 97 97 97 94 89 83 80 81 84 87 90 90 87 80 72 66 67 68 68
10 9 7 6 5 5 6 8 10 12 14 16 18 21 23 25 27 29 31 33 36 37 39 42 44 47 50 53 54 55 53 49 44 41 39 40 41 43 45 49 52 55 58 61 64 65 67 68 68 69 71 75 80 85 89 91 92 94 95 96 97 98 100 101 102 100 98 96 96 97 95 90 84 80 79 81 84 87 89 86 78 70 66 67 67 66
10 9 8 7 6 6 7 8 10 12 14 17 19 22 24 26 29 31 33 35 37 40 42 46 49 52 55 57 56 54 50 45 40 39 40 41 42 43 45 48 52 55 58 61 63 65 66 66 66 68 70 73 78 82 87 90 92 94 95 96 97 97 99 100 100 100 98 96 96 96 95 89 84 79 78 80 82 85 87 86 79 69 65 67 67 65
11 10 9 7 7 7 7 9 11 13 16 18 20 23 25 28 30 32 34 37 40 43 47 51 55 58 59 58 56 51 45 40 38 40 42 44 44 44 46 48 52 55 58 60 62 64 65 65 65 67 70 73 77 80 84 87 90 93 95 96 96 95 96 97 98 98 97 96 96 96 94 89 83 79 77 79 82 85 87 87 80 71 67 68 67 65
11 10 9 8 7 7 8 9 12 14 17 19 22 24 27 29 32 34 36 39 43 47 52 56 58 59 58 56 51 45 40 38 40 43 46 47 46 45 46 49 53 56 58 61 62 62 62 62 63 65 69 74 78 81 83 85 88 91 94 95 95 95 96 97 97 97 96 95 95 95 93 89 84 79 76 79 82 85 88 87 80 73 71 71 68 63
11 10 9 8 8 8 8 10 12 15 18 21 23 26 29 31 33 36 39 43 47 52 56 57 57 56 53 49 44 39 37 39 43 48 50 49 47 46 46 48 52 56 58 60 61 61 60 61 62 65 69 74 77 80 82 83 86 89 92 94 94 94 95 96 96 95 94 94 94 95 93 90 86 80 76 78 82 87 88 86 80 75 74 72 68 61
12 10 9 8 8 8 9 11 13 16 18 22 25 28 30 33 36 39 43 47 52 55 56 55 53 49 46 42 39 37 38 42 48 52 53 52 49 47 46 48 52 55 58 59 59 58 59 61 63 66 69 73 76 78 79 81 84 87 90 92 93 93 93 93 93 93 93 93 94 95 94 91 87 81 76 78 83 88 88 85 80 76 76 74 68 61
12 10 9 8 8 8 9 11 13 16 19 22 26 29 32 35 38 42 47 51 55 56 54 51 47 44 41 39 38 39 41 45 50 54 55 55 51 48 47 48 52 55 58 58 57 57 59 61 64 67 70 72 75 77 79 81 84 86 89 91 92 92 91 91 92 92 92 93 94 95 94 91 86 80 76 78 84 87 87 82 78 78 78 76 69 62
12 11 9 8 8 8 9 11 14 17 20 23 27 31 34 38 42 46 51 55 57 55 52 48 44 41 40 40 41 42 43 45 48 52 56 57 55 52 49 48 51 55 58 58 58 58 59 62 65 67 69 71 73 76 79 81 84 87 89 91 92 92 91 90 91 92 92 93 94 95 94 90 85 79 75 78 83 86 84 80 78 78 80 76 70 62
13 11 10 9 8 9 10 12 14 17 20 24 28 32 36 40 45 50 54 57 58 56 52 48 44 42 42 43 44 45 44 43 44 47 52 57 58 57 55 53 54 57 58 58 58 59 60 63 66 67 67 67 69 72 77 80 83 86 87 89 90 91 90 89 89 90 91 93 94 94 93 89 82 77 74 78 82 85 83 79 77 78 78 75 70 64
13 12 10 9 8 9 10 12 14 17 21 25 29 34 38 43 48 53 56 58 58 56 53 48 45 44 45 47 47 46 45 44 43 45 48 54 58 60 61 60 60 60 59 58 58 60 63 64 65 64 62 63 64 66 70 76 80 84 86 87 88 89 89 88 87 88 90 92 93 93 90 86 80 75 73 76 81 84 82 79 77 76 75 73 68 64
14 12 10 9 9 9 10 12 14 17 21 25 30 35 40 45 50 54 57 58 57 54 51 47 46 47 49 49 48 47 46 46 45 45 46 51 55 59 62 63 64 63 61 59 60 63 66 65 63 61 60 60 61 64 67 71 75 80 83 85 86 87 87 86 86 86 88 90 91 91 88 84 79 75 73 74 78 82 82 80 76 72 70 69 67 65
Wind_Direction
216 215 214 213 212 211 211 211 210 210 210 210 210 210 210 211 211 211 212 212 213 213 214 214 215 216 216 216 216 216 216 216 215 215 214 214 213 212 211 210 210 209 208 207 206 205 204 204 204 205 205 205 205 206 206 206 207 207 208 208 209 210 211 210 209 209 209 209 210 210 211 211 211 211 210 210 212 213 214 214 214 215 215 215 216 217
217 216 215 214 213 212 211 211 210 210 209 209 210 210 210 210 211 211 212 212 213 213 214 214 215 216 216 216 216 216 216 216 216 215 215 214 213 212 212 211 210 209 208 207 206 205 204 204 204 204 205 205 205 205 206 206 206 207 207 207 208 209 210 210 209 208 208 209 209 210 210 211 211 211 210 210 211 212 213 214 214 214 215 215 215 216
217 216 215 214 213 212 212 211 210 210 209 209 209 210 210 210 211 211 212 212 213 213 214 215 215 216 216 216 216 216 216 216 216 215 215 214 214 213 212 211 211 210 209 208 207 206 205 204 204 204 204 204 205 205 205 206 206 206 206 207 208 209 210 210 209 208 208 209 209 210 210 210 211 211 210 211 211 212 213 214 214 214 214 214 215 215
218 217 216 215 214 213 212 211 211 210 209 209 209 209 210 210 211 211 212 212 213 213 214 215 215 216 216 216 216 216 216 216 216 215 215 214 214 213 212 212 211 210 209 208 207 206 205 204 204 204 204 204 204 205 205 205 205 206 206 206 207 209 210 209 208 208 208 208 209 209 209 210 210 210 210 210 211 211 212 213 214 214 214 214 215 215
219 218 216 215 214 214 213 212 211 210 209 209 209 209 210 210 210 211 212 212 213 213 214 215 215 215 216 216 216 216 216 216 216 215 215 214 214 213 213 212 211 211 210 209 207 206 205 205 204 204 204 204 204 204 204 205 205 205 205 206 207 208 209 209 208 207 207 208 208 209 209 209 210 210 210 211 210 210 211 212 213 213 213 214 214 214
220 218 217 216 215 214 213 212 212 211 210 209 209 210 210 210 210 211 211 212 213 213 214 215 215 216 216 216 216 216 216 216 216 215 215 214 214 213 213 212 211 211 210 209 208 207 206 205 204 204 203 203 203 204 204 204 204 205 205 205 206 207 208 209 208 207 207 207 208 208 208 209 209 209 210 210 210 210 210 212 212 213 213 213 214 214
221 219 217 216 215 215 214 213 212 211 210 210 210 210 210 210 210 211 211 212 213 213 214 215 216 216 216 216 216 216 216 216 215 215 215 214 214 213 213 212 212 211 210 209 208 207 206 205 204 204 203 203 203 203 203 204 204 204 205 205 206 207 208 208 208 206 206 207 207 208 208 208 209 209 209 210 209 209 210 211 212 212 212 213 214 215
222 220 218 217 216 215 214 213 212 211 210 210 210 210 210 210 210 211 211 212 213 214 214 215 216 217 217 217 216 216 216 215 215 215 215 214 214 213 213 212 212 211 210 209 208 207 206 205 205 204 204 203 203 203 203 203 204 204 204 205 205 206 207 208 207 206 206 206 207 208 208 208 208 208 209 209 209 208 209 210 211 212 212 213 215 216
222 221 219 217 216 216 215 214 213 212 211 210 210 210 210 210 210 211 211 212 213 214 215 215 216 217 217 217 217 216 216 215 215 215 215 214 214 213 213 212 212 211 211 210 209 208 207 206 205 204 204 203 203 202 203 203 203 204 204 204 205 206 207 208 207 206 205 206 207 208 208 208 208 208 209 208 208 208 209 210 211 212 213 213 215 216
222 221 220 218 217 216 215 215 214 213 211 211 210 210 210 210 210 211 211 212 213 214 215 216 217 217 218 218 217 217 216 216 215 215 215 214 214 213 213 212 212 211 211 210 209 208 207 206 205 204 204 203 202 202 202 203 203 204 204 204 205 206 207 208 207 205 205 206 207 207 208 208 208 208 208 208 207 207 209 211 212 212 213 213 214 215
222 221 220 219 218 217 216 215 214 213 212 211 211 211 211 211 211 211 211 212 213 214 215 216 217 218 219 219 218 217 217 216 215 215 215 214 214 213 212 212 211 211 211 210 209 208 207 206 205 204 203 203 202 202 202 202 203 203 203 204 205 206 207 208 207 205 205 205 206 207 207 208 208 208 208 207 206 207 208 210 212 212 212 213 214 214
222 222 221 220 218 217 217 216 215 214 213 212 211 211 211 211 211 211 212 212 213 214 215 217 218 219 220 220 219 218 217 216 216 215 215 214 214 213 212 212 211 211 210 210 209 208 207 206 205 204 203 203 202 202 202 202 202 203 203 204 205 206 207 207 207 205 204 205 206 206 207 207 208 208 208 207 206 206 208 210 211 212 212 213 213 213
222 222 221 220 219 218 217 216 215 215 214 213 212 212 211 211 211 211 212 213 214 214 215 217 218 220 221 221 220 219 218 217 216 215 215 214 213 213 212 211 211 210 210 210 209 208 207 206 205 204 203 203 202 202 202 202 202 202 203 203 204 206 206 207 206 205 204 205 205 206 207 207 208 208 207 207 206 206 207 209 211 211 212 212 212 212
222 222 222 221 220 219 218 217 216 215 214 213 213 212 212 212 212 212 212 213 214 215 216 217 218 220 221 222 221 220 218 217 216 215 215 214 213 212 212 211 210 210 210 209 209 208 207 207 206 205 204 203 202 202 202 201 202 202 202 203 204 205 206 206 206 205 204 204 205 206 207 207 207 208 207 207 206 206 207 209 210 211 211 211 212 212
221 222 222 222 221 220 219 217 216 216 215 214 213 213 213 212 212 212 213 213 214 215 216 217 219 220 222 222 222 221 219 218 217 216 215 214 213 212 211 210 210 209 209 208 208 208 207 206 206 205 204 203 202 202 201 201 201 202 202 203 203 204 205 206 206 205 204 204 205 206 206 207 207 207 207 207 206 205 206 208 210 211 211 211 212 212
221 221 221 221 221 221 219 218 217 216 216 215 214 213 213 213 213 213 213 214 215 215 216 218 219 221 222 223 222 221 219 218 217 215 214 213 212 212 211 210 209 209 208 208 208 207 207 206 205 205 204 203 202 202 201 201 201 201 202 202 203 204 205 205 205 205 204 204 204 205 206 206 207 207 207 207 206 205 206 208 210 211 211 211 212 213
220 220 220 221 221 221 220 219 218 217 216 215 214 214 213 213 213 213 214 214 215 216 217 218 219 221 222 223 223 221 219 218 216 215 214 213 212 211 210 209 208 208 208 207 207 207 207 206 205 205 204 203 202 202 201 201 201 201 202 202 203 203 204 205 205 204 203 203 204 205 205 206 206 206 207 206 206 205 206 207 210 211 212 212 212 213
220 219 219 220 221 221 220 220 219 218 217 216 215 214 214 214 214 214 214 214 215 216 217 218 219 220 222 223 222 221 219 217 216 214 213 212 211 210 209 208 207 207 207 206 206 206 206 205 205 204 204 203 203 202 201 201 201 201 201 202 202 203 204 204 204 203 203 203 203 204 205 205 206 206 206 206 206 205 205 207 210 211 212 212 212 212
222 220 219 219 220 220 220 220 219 218 217 216 215 214 214 214 214 214 214 215 215 216 217 218 219 220 221 222 222 221 219 217 215 214 212 211 210 209 208 207 206 206 205 205 205 206 205 205 204 204 204 203 203 202 201 201 201 201 201 202 202 203 203 203 203 203 202 202 203 204 204 205 205 206 206 206 205 205 205 207 210 212 212 212 212 212
225 221 219 218 218 219 220 220 220 219 218 217 216 215 214 214 214 214 214 215 215 216 217 217 218 220 221 222 222 221 219 216 214 213 211 210 209 207 207 206 205 205 204 205 205 205 205 204 204 204 203 203 202 202 201 201 201 201 201 202 202 202 202 202 202 202 202 202 203 203 204 204 205 205 205 205 205 205 205 207 210 213 213 212 212 211
230 225 221 219 218 218 219 220 220 219 218 217 216 215 215 214 214 214 214 214 215 216 216 217 218 219 220 221 221 220 218 215 213 212 210 208 207 206 205 204 204 204 204 204 204 204 204 204 203 203 203 203 202 202 202 201 201 201 201 202 202 202 202 202 202 201 201 202 202 203 203 204 204 205 205 205 205 204 204 207 211 213 213 213 212 211
235 230 225 221 218 218 218 219 219 219 219 218 217 216 215 215 214 214 214 214 214 215 215 216 217 218 219 219 220 219 217 214 212 210 208 206 205 204 204 203 202 202 203 203 203 203 203 203 203 203 203 203 202 202 202 201 201 201 201 202 202 202 201 201 201 201 201 201 202 203 203 204 204 204 204 204 204 203 204 207 211 213 214 213 212 212
241 236 230 225 221 219 218 218 219 219 219 218 217 217 216 215 215 214 214 214 214 214 215 215 216 217 217 218 219 217 216 213 211 209 206 205 204 203 202 201 201 201 202 202 202 202 201 201 202 202 202 202 202 202 202 201 201 201 201 201 201 201 201 201 201 201 201 201 201 202 203 203 203 204 204 204 203 202 204 207 210 213 214 214 213 213
245 240 235 230 224 220 218 217 217 218 218 218 218 217 217 216 216 215 215 214 214 214 214 214 215 216 216 217 217 216 214 212 209 207 205 203 202 201 200 200 200 200 201 201 201 200 200 200 201 201 201 202 202 202 201 201 201 201 201 201 201 201 201 200 200 200 200 200 200 201 202 203 203 203 203 203 202 202 204 207 210 212 213 214 214 214
248 244 239 234 228 223 219 217 215 215 216 216 217 217 217 217 217 216 216 215 215 214 214 213 214 214 214 215 214 213 212 209 207 205 203 201 200 199 199 198 199 199 200 200 200 199 199 199 199 200 201 201 201 201 201 201 201 201 201 201 201 201 200 200 200 200 199 199 199 200 202 203 203 203 202 202 201 201 204 206 209 211 213 214 215 215
252 247 242 237 231 226 221 217 214 212 211 212 213 214 215 216 216 216 216 215 215 214 213 212 212 213 213 212 212 211 209 207 205 203 201 200 199 198 198 198 198 199 199 199 198 198 197 198 198 199 200 200 200 201 201 201 201 201 201 201 201 200 200 199 199 199 199 199 199 199 201 203 203 202 201 200 200 201 204 206 208 210 212 214 215 215
258 251 244 239 233 228 223 218 214 211 208 207 208 209 211 212 213 214 215 214 214 213 212 211 211 211 211 210 210 209 207 204 202 200 199 198 197 197 197 197 198 198 198 198 197 196 196 196 197 198 198 199 200 200 200 201 201 201 201 201 200 200 199 199 198 198 198 198 197 198 200 202 203 201 200 199 200 201 204 205 206 208 210 212 214 214
266 256 248 241 235 230 224 220 215 211 207 205 204 204 206 208 209 210 212 212 212 211 210 209 209 209 208 208 207 206 204 202 200 198 197 196 196 196 197 197 197 197 197 196 196 195 195 195 196 197 197 198 199 199 200 200 201 201 201 201 200 199 199 199 198 198 197 197 196 197 200 202 202 201 199 198 200 202 203 204 205 207 209 211 212 213
278 264 253 244 237 231 225 221 217 212 208 204 202 201 202 203 205 206 207 208 208 207 207 207 206 206 205 205 204 203 201 199 197 196 195 195 195 195 196 196 196 196 195 195 194 194 194 194 195 196 196 197 198 199 199 200 200 201 201 200 199 199 199 199 198 198 197 196 196 197 199 202 202 201 198 198 200 202 203 203 205 207 209 211 211 212
292 272 258 247 238 231 226 221 217 213 209 205 202 200 199 200 201 202 203 203 203 203 203 203 203 203 202 202 201 200 198 196 195 193 193 193 194 194 194 194 194 194 194 193 193 193 193 194 194 195 195 196 197 198 199 199 200 200 200 199 199 198 199 199 198 197 197 196 195 196 198 201 202 200 198 198 200 202 203 203 204 207 210 211 211 211
306 279 261 248 238 232 226 221 217 213 209 206 203 201 199 198 198 198 198 199 199 199 199 199 199 199 198 198 197 196 195 193 192 191 191 191 192 192 192 192 193 193 192 191 191 192 192 193 193 194 194 195 196 197 198 199 199 200 200 199 198 198 198 198 197 197 197 196 195 195 197 200 201 200 198 198 200 202 203 203 204 207 210 211 211 210
319 287 263 247 238 230 224 220 215 212 208 205 202 200 198 197 195 195 194 194 194 195 195 195 195 195 195 194 194 193 192 190 189 188 188 189 190 190 190 191 192 191 191 190 190 191 191 192 192 192 193 194 195 196 197 198 199 200 199 198 198 197 197 196 196 197 196 196 195 195 197 200 201 200 198 198 200 202 203 202 203 206 210 211 211 210
332 300 267 245 235 227 221 216 212 209 206 203 201 199 197 195 193 192 191 191 191 191 192 192 192 191 191 191 191 190 188 187 186 186 186 187 188 189 189 190 191 191 191 190 190 190 190 191 191 191 192 193 194 195 196 197 198 199 198 197 197 196 196 196 196 197 197 196 196 196 196 199 201 201 199 199 200 202 202 202 203 206 209 210 210 209
347 321 278 245 230 221 216 212 208 205 203 201 198 197 195 193 192 190 189 188 188 189 189 189 188 188 188 188 187 186 185 184 183 183 183 184 185 186 187 188 190 190 190 190 189 189 189 190 190 190 191 192 193 194 195 196 197 197 197 196 196 195 195 195 196 196 197 197 196 196 196 198 200 201 200 200 200 201 202 201 202 205 208 209 209 208
5 352 310 244 222 214 210 206 204 202 200 198 196 195 193 191 190 188 187 186 186 186 186 186 185 185 184 184 184 183 181 180 179 179 180 180 180 182 183 186 189 190 190 189 188 188 188 189 189 190 191 192 193 193 194 195 196 196 196 195 195 195 195 195 195 196 197 197 196 196 195 197 199 200 201 201 201 201 201 200 202 205 208 209 208 207
21 18 14 237 207 203 201 200 199 197 196 195 194 193 191 189 188 186 185 184 184 184 183 183 182 182 181 181 180 179 177 175 175 174 174 173 174 175 178 183 188 190 189 188 187 186 187 188 188 189 191 191 192 193 194 194 195 195 195 195 195 195 194 194 194 195 196 196 196 195 194 195 196 199 201 202 202 201 200 200 201 205 208 208 208 207
33 36 44 83 171 186 191 192 193 193 193 192 191 190 188 187 185 183 182 182 181 181 180 179 179 178 178 177 175 173 171 169 168 168 167 167 169 171 176 182 187 189 187 186 185 185 186 187 188 189 190 191 192 193 193 194 194 194 194 195 195 195 195 194 194 194 195 196 196 195 194 194 196 198 201 202 202 201 200 199 201 204 206 207 207 208
42 46 56 83 130 162 176 182 186 187 188 188 188 186 185 183 182 180 179 178 178 177 177 176 175 174 173 171 169 167 165 163 162 161 162 164 167 171 176 183 188 188 186 184 183 183 184 186 187 188 189 190 192 193 193 193 193 193 194 194 195 195 195 195 195 195 195 195 195 194 193 194 196 199 201 202 202 201 200 199 200 203 204 205 206 208
48 54 64 81 110 141 161 171 177 181 183 183 183 182 180 179 178 177 176 175 174 174 173 171 170 169 167 165 163 161 159 158 158 158 160 162 165 170 176 184 187 187 184 182 181 182 183 184 185 187 188 190 191 192 192 192 192 193 193 194 194 195 195 195 195 195 195 195 194 193 193 194 197 199 200 202 202 201 200 200 200 202 202 203 205 207
51 58 67 81 103 130 150 162 169 174 176 177 177 176 175 174 173 173 172 171 171 170 168 167 165 163 161 159 157 156 156 156 156 157 158 159 163 169 177 184 186 184 182 180 180 180 182 184 185 186 187 188 189 190 191 191 192 192 193 193 194 195 195 195 195 196 196 195 194 193 193 195 197 198 199 200 201 200 199 199 200 200 200 201 204 207
51 60 68 80 98 122 142 155 163 167 170 171 171 171 170 169 169 169 168 168 167 166 164 163 161 159 157 155 154 154 155 156 156 155 155 156 162 170 179 183 183 182 180 179 179 180 181 183 185 186 187 187 188 189 190 191 191 192 192 193 194 194 194 195 195 195 195 195 193 193 193 195 197 198 199 199 199 199 198 199 200 199 197 199 203 206
50 58 68 80 95 117 135 149 157 162 164 165 166 166 166 166 165 165 165 164 163 162 160 159 157 155 155 154 155 155 156 156 155 152 152 155 162 171 178 181 180 179 178 178 178 179 180 182 184 186 187 187 188 189 190 191 191 192 192 193 193 194 194 194 195 195 195 194 193 193 194 195 196 197 198 199 198 198 197 199 199 198 195 197 200 203
49 56 65 77 93 113 131 145 153 158 160 161 162 162 162 162 162 162 161 161 160 159 157 156 155 155 155 157 158 158 158 156 153 150 151 156 163 170 175 177 178 177 177 176 177 178 179 181 183 184 186 186 187 189 190 191 192 192 193 193 193 194 194 194 195 195 195 194 193 193 194 195 196 197 198 199 198 197 197 199 199 197 193 195 199 200
49 56 65 77 93 111 129 142 150 155 157 158 159 159 160 159 159 159 159 158 157 157 156 155 156 157 159 160 161 161 160 157 153 150 151 155 161 167 171 174 175 175 175 175 176 177 179 181 182 183 183 184 185 188 190 191 192 193 194 194 194 193 193 194 195 195 195 194 193 193 194 195 196 197 198 198 197 197 198 200 199 196 193 195 198 199
50 57 65 77 93 110 127 140 148 153 155 156 157 157 157 157 157 157 157 157 156 156 156 157 159 161 164 165 164 163 160 155 152 151 152 155 157 161 165 169 172 173 174 174 175 177 179 181 182 181 180 182 184 187 190 191 193 193 194 194 194 193 194 194 195 195 195 194 193 193 194 195 196 198 198 197 196 197 199 200 199 195 194 196 198 197
50 57 66 78 94 111 127 139 146 151 153 154 155 156 156 156 156 156 156 156 155 156 157 159 162 166 168 169 167 162 157 154 153 154 155 154 154 155 158 163 168 172 173 174 175 176 178 180 179 179 179 181 184 187 189 191 193 194 195 194 194 194 194 195 195 195 194 193 192 193 194 195 197 198 198 196 195 197 199 200 198 195 195 197 199 199
50 57 66 79 94 111 126 138 145 150 152 153 154 155 156 156 156 155 155 155 155 156 158 161 165 168 169 167 162 157 153 154 156 158 159 157 155 153 154 159 165 169 172 174 175 176 177 178 177 176 178 181 184 187 190 192 193 194 194 194 194 193 194 195 195 195 194 193 192 193 194 195 197 198 197 195 195 196 198 199 198 196 197 200 202 202
50 56 66 79 95 112 126 137 145 149 151 153 154 155 156 156 156 155 155 154 155 156 159 162 165 166 164 159 155 152 153 156 161 164 164 162 159 156 154 156 162 167 170 173 174 175 176 175 175 175 177 180 184 187 190 192 193 194 193 193 193 193 193 194 194 194 194 193 193 193 195 196 197 197 195 194 195 196 198 198 198 198 200 203 205 205
51 56 65 78 95 111 126 137 144 148 151 153 155 156 157 157 156 156 155 154 155 156 159 161 162 160 156 153 151 151 153 158 164 168 169 167 165 162 160 160 163 166 170 172 174 174 173 172 172 174 176 179 183 186 190 192 194 194 194 194 193 193 193 194 194 194 193 193 194 194 196 197 197 196 194 194 195 196 198 198 199 200 203 205 206 206
50 56 63 77 93 110 124 135 142 148 151 153 155 157 158 158 157 156 155 155 156 158 159 160 159 156 153 151 151 151 152 156 162 168 171 171 170 168 166 165 165 167 169 171 172 171 169 168 169 171 173 177 180 184 188 191 194 195 195 194 194 194 194 194 194 194 194 194 194 195 197 198 197 196 194 193 195 196 198 199 200 202 205 205 205 204
49 55 62 74 91 109 123 134 141 147 151 154 156 158 159 159 159 158 157 158 159 160 160 159 156 154 152 152 151 150 150 153 158 164 169 171 172 171 169 168 167 167 168 169 169 167 165 164 164 165 168 172 177 181 185 190 194 196 196 195 194 194 194 194 194 194 194 195 195 196 197 198 198 196 194 193 194 196 198 200 201 203 204 204 203 203